Flag for Germany Weather past 2 weeks in Lörrach, Baden-Württemberg, Germany

Now
45 °F

Fog.


Feels Like: 45 °F
Forecast: 38 / 66 °F
Wind: No wind

Location: Bale-Mulhouse

Current Time: Sep 23, 2014 at 4:46:42 AM

Latest Report: Sep 23, 2014 at 4:00 AM


Visibility: 2 mi

Pressure: 30.18 "Hg

Humidity: 100%

Dew point: 45 °F

Location of LörrachLocation

Historic Weather in Lörrach — Graph

°F

Lörrach temperature yesterday

Maximum temperature yesterday: 63 °F (at 2:00 PM)
Minimum temperature yesterday: 46 °F (at 11:30 PM)
Average temperature yesterday: 56 °F

Past Weeks' High & Low Weather Summary

 TemperatureHumidityPressure
High81 °F (Sep 8, 3:00 PM)100% (Sep 8, 3:00 AM)30.18 "Hg (Sep 8, 3:00 AM)
Low45 °F (Sep 23, 1:30 AM)48% (Sep 16, 3:30 PM)29.83 "Hg (Sep 17, 4:30 PM)
Average62 °F84%30.01 "Hg
* Reported Sep 8 3:00 AM — Sep 23 3:30 AM, Lörrach, Weather by CustomWeather, © 2014

Note: Actual official high and low records may vary slightly from our data, if they occured in-between our weather recording intervals... More about our weather records

Advertising

Lörrach weather history for previous 24 hours

 ConditionsComfort  
Time TempWeatherWind HumidityBarometerVisibility
3:30 AM
Sep 23
45 °FFog.6 mph93%30.18 "Hg3 mi
3:00 AM46 °FFog.5 mph100%30.18 "Hg3 mi
2:30 AM46 °FPassing clouds.9 mph100%30.18 "Hg4 mi
2:00 AM45 °FFog.3 mph93%30.15 "Hg2 mi
1:30 AM45 °FPassing clouds.5 mph100%30.18 "Hg4 mi
1:00 AM46 °FPassing clouds.2 mph93%30.15 "Hg4 mi
12:30 AM46 °FPassing clouds.5 mph93%30.15 "Hg4 mi
12:00 AM46 °FPassing clouds.7 mph100%30.15 "HgN/A
11:30 PM
Sep 22
46 °FPassing clouds.8 mph93%30.18 "HgN/A
11:00 PM48 °FPassing clouds.6 mph94%30.18 "HgN/A
10:30 PM48 °FPassing clouds.2 mph94%30.15 "HgN/A
10:00 PM52 °FPassing clouds.3 mph88%30.18 "HgN/A
9:30 PM52 °FLight rain. Passing clouds.No wind88%30.18 "HgN/A
9:00 PM54 °FLight rain. Passing clouds.12 mph82%30.18 "Hg6 mi
8:30 PM50 °FPassing clouds.5 mph94%30.15 "HgN/A
8:00 PM52 °FScattered clouds.2 mph82%30.15 "HgN/A
7:30 PM55 °FScattered clouds.2 mph72%30.15 "HgN/A
7:00 PM57 °FScattered clouds.2 mph72%30.12 "HgN/A
6:30 PM59 °FScattered clouds.1 mph63%30.12 "HgN/A
6:00 PM59 °FBroken clouds.6 mph59%30.12 "HgN/A
5:30 PM59 °FPartly sunny.8 mph59%30.12 "HgN/A
5:00 PM61 °FBroken clouds.12 mph52%30.12 "HgN/A
4:30 PM61 °FBroken clouds.7 mph59%30.09 "HgN/A
4:00 PM63 °FBroken clouds.8 mph59%30.09 "HgN/A
3:30 PM63 °FScattered clouds.5 mph56%30.09 "HgN/A
3:00 PM61 °FScattered clouds.8 mph63%30.09 "HgN/A
2:30 PM61 °FBroken clouds.8 mph59%30.12 "HgN/A
2:00 PM63 °FPartly sunny.3 mph56%30.12 "HgN/A
1:30 PM61 °FScattered clouds.3 mph55%30.12 "HgN/A
1:14 PM61 °FScattered clouds.6 mph63%30.15 "HgN/A
12:30 PM61 °FScattered clouds.6 mph63%30.15 "HgN/A
12:00 PM61 °FScattered clouds.8 mph68%30.15 "HgN/A
11:30 AM59 °FPassing clouds.7 mph68%30.15 "HgN/A
11:00 AM59 °FPassing clouds.9 mph72%30.15 "HgN/A
10:30 AM57 °FPassing clouds.7 mph77%30.15 "HgN/A
10:00 AM57 °FPassing clouds.3 mph72%30.15 "HgN/A
9:30 AM55 °FScattered clouds.1 mph82%30.15 "HgN/A
9:16 AM54 °FScattered clouds.1 mph88%30.15 "HgN/A
9:00 AM54 °FSunny.2 mph88%30.15 "Hg10 mi
8:30 AM54 °FPartly sunny.2 mph88%30.15 "HgN/A
8:00 AM52 °FPassing clouds.2 mph94%30.15 "HgN/A
7:30 AM52 °FClear.3 mph94%30.15 "Hg10 mi
7:00 AM52 °FClear.3 mph100%30.15 "Hg10 mi
6:30 AM52 °FClear.3 mph94%30.12 "Hg10 mi
6:00 AM52 °FClear.2 mph100%30.12 "Hg10 mi
5:30 AM52 °FClear.3 mph94%30.12 "Hg10 mi
5:00 AM54 °FPassing clouds.3 mph94%30.12 "HgN/A
4:30 AM54 °FPassing clouds.3 mph94%30.12 "HgN/A
4:00 AM55 °FOvercast.3 mph88%30.12 "HgN/A
Weather by CustomWeather, © 2014

See weather overviewHow to use our weather pages